Maidenhead Half Marathon
7 Sep 2014

     
Click on your name for detailed data

Page 1 of 34 (1685 items)
PosBib NoNameTimeChip TimeCategoryCat PosSecond CatSecond Cat PosGenderGen PosClubPace
12813Michael Hiscott1:07:35.4FinishedTop 31Male1Maidenhead AC11.6 m/hr
23472Phil Sanders1:12:37.5FinishedTop 32ARC Champs1Male2Kent AC10.8 m/hr
32457Daniel Davies1:13:28.7FinishedTop 33Male3Shaftesbury Barnet Harriers AC10.7 m/hr
43412Matthieu Ribault1:13:36.0FinishedSenior1Male4Thames Valley Harriers10.7 m/hr
53867Nigel Rackham1:13:44.9FinishedV501Male5Metros10.7 m/hr
61978Simon Newton1:13:48.8FinishedSenior2Male6Ackworth Road Runners10.6 m/hr
73642Jamie Thom1:13:50.8FinishedSenior3Male710.6 m/hr
83582Tom Stephenson1:14:12.1FinishedSenior4Male8London Heathside10.6 m/hr
92169Steve Barnes1:15:14.6FinishedV401Male9Newbury AC10.4 m/hr
10553Karl Spielmann1:15:40.2FinishedV402Male1010.4 m/hr
112556Stephen Elson1:15:48.0FinishedSenior5Male11Ealing Southall & Middlesex AC10.4 m/hr
122726Stephen Gumbrill1:16:05.7FinishedSenior6Male12Hart Road Runners10.3 m/hr
133174Andrew Mitchell1:17:05.2FinishedV403Male13Thames Valley Harriers10.2 m/hr
143394Jonathan Ratcliffe1:17:56.8FinishedV404Male14Herne Hill Harriers10.1 m/hr
153863Ben Martin-Dye1:18:03.6FinishedV405Male15Bracknell Forest Runners10.1 m/hr
163537Simon Sikora1:18:14.1FinishedSenior7Male1610.0 m/hr
173989Martin Bateman1:18:34.2FinishedSenior8Male17Hillingdon AC10.0 m/hr
183130Matthew Mcdaniel1:18:38.0FinishedSenior9Male1810.0 m/hr
192718Dylan Grimes1:18:49.8FinishedV406ARC Champs2Male19Barnes Runners10.0 m/hr
202760Nathan Harrison1:18:57.2FinishedSenior10Male2010.0 m/hr
212567Pascal Evans1:18:59.7FinishedV407Male21Stragglers9.9 m/hr
223400Carl Redondo1:19:22.8FinishedSenior11Male22Trent park9.9 m/hr
233747Chris Wayman1:19:28.0FinishedSenior12Male239.9 m/hr
243155James Mensa-Annan1:19:39.4FinishedSenior13Male249.9 m/hr
252480Michael Deering1:19:41.8FinishedSenior14Male25Didcot Runners9.9 m/hr
263748Alex Weatherill1:19:42.6FinishedSenior15Male26London Heathside9.9 m/hr
272633Simon Fraser1:19:48.8FinishedSenior16ARC Champs3Male27St Albans Striders9.8 m/hr
283262Jose Manuel Pabon1:19:49.4FinishedSenior17Male28Ealing Eagles Running Club9.8 m/hr
293430Dave Roberts1:19:53.9FinishedV408Male29Fell Runners Association9.8 m/hr
302983Matthew Knight1:19:55.6FinishedV409Male30Bracknell Forest Runners9.8 m/hr
312762Will Harrison1:19:57.5FinishedSenior18Male31Dorking & Mole Valley AC9.8 m/hr
322874Alan Hutchinson1:20:03.9FinishedSenior19Male329.8 m/hr
332188Chris Baynes1:20:22.4FinishedSenior20ARC Champs4Male33Garden City Runners9.8 m/hr
342246Max Bontoft1:20:24.4FinishedSenior21Male349.8 m/hr
353157Tomasz Mietki1:20:29.3FinishedSenior22Male359.8 m/hr
362372Amy Clements1:20:47.4FinishedTop 31ARC Champs1Female1Kent AC9.7 m/hr
373633Pawel Tatarek1:20:50.7FinishedSenior23Male36Zoom Tri Club Bournemouth9.7 m/hr
382903Phil Jelly1:20:53.8FinishedSenior24Male379.7 m/hr
392580Steve Featherstone1:21:01.5FinishedV4010Male389.7 m/hr
401036Raj Paranandi1:21:04.9FinishedSenior25Male399.7 m/hr
413473John Sandhu1:21:07.6FinishedV4011Male409.7 m/hr
423423Matt Risden1:21:09.3FinishedSenior26Male419.7 m/hr
43340Chris Moseley1:21:10.0FinishedSenior27Male42Wargrave Runners9.7 m/hr
443370Emily Proto1:21:19.5FinishedTop 32Female2Arena 80 AC9.7 m/hr
453092Freysen Maritz1:21:27.2FinishedV4012Male43Stragglers9.6 m/hr
462764Henry Hart1:21:31.9FinishedSenior28Male449.6 m/hr
473142Gary Mckivett1:21:37.4FinishedSenior29Male45Arena 80 AC9.6 m/hr
483708Sebastian Vons1:21:40.1FinishedSenior30Male46Wimbledon Windmilers9.6 m/hr
493555Robin Smith1:21:40.4FinishedV502ARC Champs5Male47Datchet Dashers9.6 m/hr
502463Alan Wilson1:21:47.4FinishedV4013Male48Reading Roadrunners9.6 m/hr
Page 1 of 34 (1685 items)
   

fb